Fairbanks, AK

3:54 AM AKDT on April 19, 2018 (GMT -0800)
Fairbanks International

Weather History for PAFA - February, 2013

Change the Weather History Date:

Tuesday, February 5, 2013

  Actual Average Record
Temperature  
Mean Temperature -6 °F -5 °F  
Max Temperature 5 °F 5 °F 39 °F (1954)
Min Temperature -18 °F -13 °F -56 °F (1968)
Degree Days  
Heating Degree Days 71 70  
Month to date heating degree days 315 353  
Since 1 July heating degree days 9433 8885  
Cooling Degree Days 0 0  
Month to date cooling degree days 0 0  
Year to date cooling degree days 0 0  
Moisture  
Dew Point -3 °F    
Average Humidity 85    
Maximum Humidity 95    
Minimum Humidity 68    
Precipitation  
Precipitation T in 0.01 in 0.31 in (1931)
Month to date precipitation 0.14 0.08  
Year to date precipitation 0.93 0.66  
Snow  
Snow 0.20 in 0.30 in 2.40 in (1931)
Month to date snowfall 2.6 1.5  
Since 1 July snowfall 42.4 49.7  
Snow Depth 21.00 in    
Sea Level Pressure  
Sea Level Pressure 29.68 in    
Wind  
Wind Speed 0 mph (South)    
Max Wind Speed 6 mph    
Max Gust Speed -    
Visibility 5 miles    
Events Fog , Snow    
T = Trace of Precipitation, MM = Missing Value Source: NWS Daily Summary

Daily Weather History Graph

Daily Weather History Graph

Search for Another Location

Airport or City:

Astronomy

Feb. 05, 2013 Rise Set
Actual Time 9:22 AM AKST 4:49 PM AKST
Civil Twilight 8:25 AM AKST 5:46 PM AKST
Nautical Twilight 7:26 AM AKST 6:45 PM AKST
Astronomical Twilight 6:29 AM AKST 7:42 PM AKST
Moon 6:13 AM AKST (2/5) 11:16 AM AKST (2/5)
Length of Visible Light 9h 20m
Length of Day
7h 27m
Waning Crescent, 25% of the Moon is Illuminated
Feb 5
Waning Crescent
Feb 9
New
Feb 17
First Quarter
Feb 25
Full
Mar 4
Last Quarter

Hourly Weather History & Observations

Time (AKST) Temp. Windchill Dew Point Humidity Pressure Visibility Wind Dir Wind Speed Gust Speed Precip Events Conditions
12:53 AM -0.9 °F - -5.1 °F 83% 29.70 in 10.0 mi Calm Calm - N/A   Mostly Cloudy
1:53 AM -7.1 °F - -11.0 °F 83% 29.70 in 10.0 mi Calm Calm - N/A   Mostly Cloudy
3:53 AM -11.9 °F - -16.1 °F 82% 29.70 in 10.0 mi Calm Calm - N/A   Mostly Cloudy
4:53 AM -8.0 °F - -11.9 °F 83% 29.70 in 10.0 mi Calm Calm - N/A   Overcast
5:53 AM -5.1 °F - -9.9 °F 80% 29.70 in 6.0 mi Calm Calm - N/A   Overcast
6:00 AM -5.1 °F - -9.9 °F 80% 29.66 in 2.0 mi Calm Calm - N/A   Overcast
6:05 AM -5.1 °F - -7.1 °F 91% 29.66 in 1.0 mi Calm Calm - N/A   Overcast
6:36 AM -4.0 °F -12.4 °F -6.0 °F 91% 29.67 in 0.8 mi WSW 3.5 mph - N/A   Overcast
6:50 AM -2.2 °F - -5.8 °F 85% 29.67 in 0.5 mi Calm Calm - N/A Fog Light Freezing Fog
6:53 AM -2.9 °F - -5.1 °F 90% 29.71 in 0.5 mi Calm Calm - N/A Fog Light Freezing Fog
7:20 AM -0.9 °F - -6.0 °F 79% 29.67 in 1.0 mi Calm Calm - N/A   Mist
7:53 AM -0.9 °F - -2.9 °F 91% 29.72 in 2.0 mi Calm Calm - N/A   Overcast
8:26 AM -0.0 °F - -4.0 °F 83% 29.67 in 1.5 mi Calm Calm - N/A Snow Light Snow
8:57 AM -0.0 °F - -4.0 °F 83% 29.67 in 1.5 mi Calm Calm - N/A Snow Light Snow
9:53 AM 1.0 °F - -2.9 °F 83% 29.71 in 1.5 mi Calm Calm - N/A Snow Light Snow
10:11 AM 1.0 °F - -0.9 °F 91% 29.67 in 0.8 mi Calm Calm - N/A Snow Light Snow
10:18 AM 1.0 °F - -2.0 °F 87% 29.67 in 0.5 mi Calm Calm - N/A Fog , Snow Light Snow
10:26 AM 1.0 °F - -0.9 °F 91% 29.67 in 0.5 mi Calm Calm - N/A Fog , Snow Light Snow
10:53 AM 1.0 °F - -0.0 °F 95% 29.71 in 1.0 mi Calm Calm - N/A Snow Light Snow
11:31 AM 1.9 °F - -0.0 °F 91% 29.67 in 0.5 mi Calm Calm - N/A Fog , Snow Light Snow
11:53 AM 1.9 °F - -0.0 °F 91% 29.72 in 0.5 mi Calm Calm - N/A Fog , Snow Light Snow
12:14 PM 3.0 °F - 1.0 °F 91% 29.67 in 1.0 mi Calm Calm - N/A Snow Light Snow
12:28 PM 3.0 °F - -0.0 °F 87% 29.67 in 4.0 mi Calm Calm - N/A Snow Light Snow
12:39 PM 3.9 °F -6.9 °F -0.0 °F 84% 29.66 in 6.0 mi East 5.8 mph - N/A Snow Light Snow
12:53 PM 5.0 °F - 1.0 °F 84% 29.71 in 7.0 mi Calm Calm - N/A Snow Light Snow
1:36 PM 3.9 °F - 1.0 °F 88% 29.67 in 6.0 mi Calm Calm - N/A Snow Light Snow
1:47 PM 3.2 °F -6.2 °F -0.4 °F 85% 29.67 in 1.5 mi South 4.6 mph - N/A Snow Light Snow
1:53 PM 3.9 °F -3.4 °F -0.0 °F 84% 29.71 in 1.5 mi South 3.5 mph - N/A Snow Light Snow
2:04 PM 3.9 °F -3.4 °F -0.0 °F 84% 29.66 in 0.5 mi SSE 3.5 mph - N/A Fog , Snow Light Snow
2:26 PM 3.9 °F - 1.0 °F 88% 29.66 in 2.0 mi Calm Calm - N/A Snow Light Snow
2:34 PM 5.0 °F - 1.9 °F 87% 29.66 in 4.0 mi Calm Calm - N/A Snow Light Snow
2:53 PM 5.0 °F - 1.9 °F 87% 29.70 in 7.0 mi Calm Calm - N/A Snow Light Snow
3:53 PM 3.0 °F - -0.9 °F 84% 29.70 in 10.0 mi Calm Calm - N/A   Mostly Cloudy
4:53 PM 1.9 °F - -2.0 °F 83% 29.69 in 10.0 mi Calm Calm - N/A Snow Light Snow
5:53 PM 1.9 °F - -2.0 °F 83% 29.68 in 10.0 mi Calm Calm - N/A Snow Light Snow
6:53 PM 1.9 °F - -2.0 °F 83% 29.68 in 10.0 mi Calm Calm - N/A Snow Light Snow
7:53 PM 1.9 °F - -2.0 °F 83% 29.67 in 10.0 mi Calm Calm - N/A Snow Light Snow
8:53 PM 1.9 °F - -2.9 °F 80% 29.68 in 10.0 mi Calm Calm - N/A Snow Light Snow
9:53 PM 1.0 °F - -2.9 °F 83% 29.67 in 7.0 mi Calm Calm - N/A Snow Light Snow
10:53 PM -0.0 °F - -2.9 °F 88% 29.67 in 7.0 mi Calm Calm - N/A Snow Light Snow
11:53 PM -2.9 °F - -7.1 °F 82% 29.66 in 9.0 mi Calm Calm - N/A Snow Light Snow